Blattenbach Aussen Messungen

Zurück zum Überblick

Zeitpunkt Temperatur Temperatur Kabelsensor Luftfeuchte
26.03.2019 20:22:16 3,7 C 7,7 C 57,0%
26.03.2019 20:15:16 3,8 C 7,7 C 56,0%
26.03.2019 20:08:17 4,0 C 7,7 C 56,0%
26.03.2019 20:01:18 4,1 C 7,8 C 55,0%
26.03.2019 19:54:19 4,3 C 7,8 C 55,0%
26.03.2019 19:47:19 4,4 C 7,8 C 55,0%
26.03.2019 19:40:14 4,6 C 7,9 C 54,0%
26.03.2019 19:33:16 4,7 C 7,9 C 53,0%
26.03.2019 19:26:15 4,9 C 7,9 C 53,0%
26.03.2019 19:19:16 5,0 C 7,9 C 53,0%
26.03.2019 19:12:15 5,2 C 8,0 C 52,0%
26.03.2019 19:05:18 5,4 C 8,0 C 52,0%
26.03.2019 18:58:15 5,8 C 8,1 C 50,0%
26.03.2019 18:51:16 5,9 C 8,1 C 50,0%
26.03.2019 18:44:17 6,0 C 8,1 C 50,0%
26.03.2019 18:37:17 6,3 C 8,2 C 50,0%
26.03.2019 18:30:17 6,7 C 8,2 C 48,0%
26.03.2019 18:23:15 7,2 C 8,2 C 47,0%
26.03.2019 18:16:18 7,9 C 8,3 C 45,0%
26.03.2019 18:09:18 8,1 C 8,4 C 45,0%
26.03.2019 18:02:15 8,2 C 8,4 C 45,0%
26.03.2019 17:55:14 8,4 C 8,5 C 44,0%
26.03.2019 17:48:19 8,7 C 8,4 C 45,0%
26.03.2019 17:41:17 8,9 C 8,4 C 45,0%
26.03.2019 17:34:18 9,2 C 8,4 C 45,0%
26.03.2019 17:27:18 9,3 C 8,4 C 45,0%
26.03.2019 17:20:18 9,4 C 8,3 C 44,0%
26.03.2019 17:13:19 9,5 C 8,2 C 45,0%
26.03.2019 17:06:17 9,5 C 8,2 C 45,0%
26.03.2019 16:59:18 9,3 C 8,1 C 46,0%
26.03.2019 16:52:16 9,2 C 8,0 C 46,0%
26.03.2019 16:45:16 8,8 C 7,9 C 46,0%
26.03.2019 16:38:17 8,2 C 7,8 C 46,0%
26.03.2019 16:31:19 8,1 C 7,8 C 46,0%
26.03.2019 16:24:17 8,5 C 7,9 C 46,0%
26.03.2019 16:17:18 9,0 C 7,9 C 46,0%
26.03.2019 16:09:59 9,6 C 7,9 C 45,0%
26.03.2019 16:03:03 10,0 C 7,8 C 46,0%
26.03.2019 15:56:02 9,6 C 7,7 C 46,0%
26.03.2019 15:49:03 9,3 C 7,7 C 47,0%
26.03.2019 15:42:02 9,3 C 7,6 C 46,0%
26.03.2019 15:35:01 9,1 C 7,6 C 47,0%
26.03.2019 15:28:04 9,3 C 7,6 C 46,0%
26.03.2019 15:20:59 9,1 C 7,5 C 48,0%
26.03.2019 15:14:00 8,9 C 7,5 C 47,0%
26.03.2019 15:07:02 9,1 C 7,5 C 47,0%
26.03.2019 15:00:00 9,5 C 7,5 C 47,0%
26.03.2019 14:52:59 10,0 C 7,5 C 47,0%
26.03.2019 14:46:03 9,8 C 7,5 C 47,0%
26.03.2019 14:39:03 9,4 C 7,4 C 48,0%